Portada
METAR-TAF:

METAR-TAF

Aeroports :

Lamerd, Iran

latitud: 27-22-22N, longitud: 53-11-20E, altitud: 408 m

Observació

L'informe es va fer fa 29 minuts, a les 13:00 UTC
Vent 4 kt del Sud/Sud-Oest
Temperatura 26°C
Humitat 48%
Pressió 1017 hPa
Visibilitat 10 km o més
Escasses núvols a una alçada de 3500 ft, Cumulonimbus.

METAR: OISR 061300Z 20004KT 9999 FEW035CB 26/14 Q1017 A3004 NOSIG

Hora: 16:59 (13:29 UTC)


TAF: manca

Observacions i pronòstics meteorològics de més de 4000 aeroports (METAR i TAF).

Les estacions disponibles són els punts grocs i vermells al mapa.

Posi el ratolí al punt desitjat per veure el nom de l'estació.

Feu clic per veure les observacions i els pronòstics meteorològics.

Per canviar el mapa: feu clic els botons verds amb una creu de color negre per apropar; al botó verd amb un guió per allunyar la imatge; o en les fletxes verdes per a mapes adjacents.


METAR-TAF: